contact:dominique.lefevre@mio.osupytheas.fr, maurice.libes@osupytheas.fr, didier.mallarino@osupytheas.fr
Project:EMSO http://www.emso-fr.org/EMSO-France
Depth: 2436.0 m
Title:EMSO Ligure Ouest : Data MII capteur AQUADOPP
Date,Latitude,Longitude,X_East,Y_North,Z_Up,Amplitude_X,Amplitude_Y,Amplitude_Z,Batterie,SoundSpeed,Heading,Pitch,Roll,Pressure,TIS,Speed,Direction
, degrees North, degrees East, m.s-1, m.s-1,m.s-1, 1, 1, 1, Volt, m.s-1, degree, degree, degree, dbar, degree_C, m.s-1, degree
2022-08-09T00:04:03,42.805,6.029,-0.008,-0.012,-0.034,103.0,102.0,100.0,13.4,1505.2,323.0,-0.8,1.8,2471.003,13.29,0.014,213.7
2022-08-09T00:07:03,42.805,6.029,-0.001,-0.019,-0.033,103.0,103.0,101.0,13.4,1505.2,323.2,-0.7,1.8,2470.95,13.29,0.019,183.0
2022-08-09T00:10:03,42.805,6.029,-0.004,0.0,-0.032,104.0,103.0,101.0,13.4,1505.2,325.8,-0.8,1.8,2470.989,13.29,0.004,270.0
2022-08-09T00:13:03,42.805,6.029,-0.025,0.003,-0.025,103.0,102.0,101.0,13.4,1505.2,322.6,-0.8,1.8,2470.948,13.29,0.025,276.8
2022-08-09T00:16:03,42.805,6.029,-0.037,-0.009,-0.041,102.0,102.0,101.0,13.3,1505.2,320.3,-0.8,1.8,2470.944,13.29,0.038,256.3
2022-08-09T00:19:03,42.805,6.029,0.003,-0.004,-0.005,104.0,103.0,102.0,13.4,1505.2,328.2,-0.8,1.8,2470.898,13.29,0.005,143.1
2022-08-09T00:22:03,42.805,6.029,-0.017,-0.004,-0.014,103.0,103.0,101.0,13.3,1505.2,323.7,-0.8,1.8,2470.978,13.29,0.017,256.8
2022-08-09T00:25:03,42.805,6.029,-0.025,0.011,0.013,103.0,101.0,101.0,13.4,1505.2,323.2,-0.7,1.8,2470.944,13.29,0.027,293.7
2022-08-09T00:28:03,42.805,6.029,-0.005,-0.019,-0.026,102.0,104.0,103.0,13.4,1505.2,327.2,-0.8,1.8,2470.942,13.29,0.019,194.7
2022-08-09T00:31:03,42.805,6.029,0.017,-0.002,-0.039,102.0,101.0,100.0,13.4,1505.2,322.9,-0.7,1.7,2470.925,13.29,0.017,96.7
2022-08-09T00:34:03,42.805,6.029,0.014,0.014,-0.02,103.0,102.0,100.0,13.4,1505.2,326.9,-0.8,1.8,2470.94,13.29,0.019,45.0
2022-08-09T00:37:03,42.805,6.029,-0.002,0.0,-0.032,103.0,102.0,105.0,13.4,1505.2,329.2,-0.8,1.8,2470.923,13.29,0.002,270.0
2022-08-09T00:40:03,42.805,6.029,0.014,-0.01,-0.046,104.0,100.0,101.0,13.4,1505.2,322.6,-0.8,1.8,2470.962,13.29,0.017,125.5
2022-08-09T00:43:03,42.805,6.029,0.026,0.002,0.007,101.0,104.0,100.0,13.3,1505.2,323.5,-0.8,1.8,2470.972,13.29,0.026,85.6
2022-08-09T00:46:03,42.805,6.029,-0.01,-0.006,0.0,102.0,102.0,101.0,13.4,1505.2,328.6,-0.8,1.8,2470.939,13.29,0.011,239.0
2022-08-09T00:49:03,42.805,6.029,-0.011,-0.003,-0.009,102.0,102.0,100.0,13.4,1505.2,327.2,-0.7,1.8,2470.938,13.29,0.011,254.7
2022-08-09T00:52:03,42.805,6.029,-0.021,-0.005,-0.046,103.0,102.0,101.0,13.4,1505.2,323.5,-0.8,1.8,2470.945,13.29,0.021,256.6
2022-08-09T00:55:03,42.805,6.029,0.016,0.0,-0.009,102.0,103.0,100.0,13.4,1505.2,325.5,-0.8,1.8,2470.936,13.29,0.016,90.0
2022-08-09T00:58:03,42.805,6.029,0.004,0.007,-0.039,103.0,102.0,102.0,13.3,1505.2,328.9,-0.8,1.8,2470.952,13.29,0.008,29.7
2022-08-09T01:04:03,42.805,6.029,-0.032,0.015,-0.056,104.0,103.0,102.0,13.4,1505.2,328.8,-0.8,1.8,2470.957,13.29,0.035,295.1
2022-08-09T01:07:03,42.805,6.029,-0.01,-0.001,-0.017,103.0,102.0,101.0,13.3,1505.2,318.3,-0.8,1.8,2470.972,13.29,0.01,264.3
2022-08-09T01:10:03,42.805,6.029,-0.01,-0.003,-0.024,103.0,102.0,102.0,13.4,1505.2,328.1,-0.8,1.8,2470.978,13.29,0.01,253.3
2022-08-09T01:13:03,42.805,6.029,-0.003,-0.015,-0.031,102.0,103.0,101.0,13.3,1505.2,329.6,-0.8,1.8,2470.958,13.29,0.015,191.3
2022-08-09T01:16:03,42.805,6.029,-0.001,-0.019,-0.054,102.0,102.0,101.0,13.3,1505.2,327.4,-0.7,1.8,2470.964,13.29,0.019,183.0
2022-08-09T01:19:03,42.805,6.029,0.011,-0.013,-0.031,102.0,102.0,102.0,13.3,1505.2,320.0,-0.8,1.8,2470.961,13.29,0.017,139.8
2022-08-09T01:22:03,42.805,6.029,-0.01,-0.004,-0.032,101.0,103.0,101.0,13.3,1505.2,318.6,-0.7,1.8,2470.993,13.29,0.01,248.2
2022-08-09T01:25:03,42.805,6.029,-0.021,-0.001,-0.033,102.0,104.0,102.0,13.3,1505.2,330.7,-0.8,1.8,2470.972,13.29,0.021,267.3
2022-08-09T01:28:03,42.805,6.029,-0.002,0.016,-0.025,103.0,102.0,99.0,13.4,1505.2,328.6,-0.8,1.8,2470.973,13.29,0.016,352.9
2022-08-09T01:31:03,42.805,6.029,0.006,-0.004,-0.057,101.0,102.0,101.0,13.4,1505.2,321.0,-0.7,1.8,2470.981,13.29,0.007,123.7
2022-08-09T01:34:03,42.805,6.029,0.015,-0.019,-0.011,103.0,102.0,100.0,13.4,1505.2,329.2,-0.7,1.8,2470.957,13.29,0.024,141.7
2022-08-09T01:37:03,42.805,6.029,0.012,-0.015,0.004,104.0,102.0,100.0,13.4,1505.2,329.4,-0.7,1.8,2470.961,13.29,0.019,141.3
2022-08-09T01:40:03,42.805,6.029,0.003,0.008,-0.008,103.0,102.0,101.0,13.3,1505.2,325.8,-0.7,1.8,2470.986,13.29,0.008,20.6
2022-08-09T01:43:03,42.805,6.029,0.017,-0.008,-0.005,102.0,102.0,102.0,13.3,1505.2,333.9,-0.7,1.8,2470.976,13.29,0.018,115.2
2022-08-09T01:46:03,42.805,6.029,0.01,0.012,-0.002,103.0,102.0,102.0,13.4,1505.2,333.1,-0.8,1.8,2470.928,13.29,0.015,39.8
2022-08-09T01:49:03,42.805,6.029,-0.013,-0.022,-0.004,103.0,102.0,100.0,13.4,1505.2,323.3,-0.8,1.8,2470.997,13.29,0.025,210.6
2022-08-09T01:52:03,42.805,6.029,0.011,-0.002,-0.037,102.0,102.0,101.0,13.3,1505.2,325.2,-0.7,1.8,2470.956,13.29,0.011,100.3
2022-08-09T01:55:03,42.805,6.029,0.012,-0.013,-0.04,103.0,103.0,101.0,13.4,1505.2,326.8,-0.8,1.8,2470.957,13.29,0.017,137.3
2022-08-09T01:58:03,42.805,6.029,-0.004,-0.02,-0.041,103.0,103.0,102.0,13.3,1505.2,328.1,-0.8,1.8,2470.977,13.29,0.02,191.3
2022-08-09T02:04:03,42.805,6.029,-0.016,-0.004,-0.003,102.0,102.0,101.0,13.3,1505.2,328.2,-0.8,1.8,2471.021,13.28,0.016,256.0
2022-08-09T02:07:03,42.805,6.029,0.004,-0.014,-0.015,103.0,102.0,103.0,13.4,1505.2,326.9,-0.8,1.8,2471.042,13.28,0.014,164.1
2022-08-09T02:10:03,42.805,6.029,0.01,-0.004,-0.015,104.0,102.0,101.0,13.4,1505.2,321.3,-0.8,1.8,2470.988,13.28,0.01,111.8
2022-08-09T02:13:03,42.805,6.029,-0.007,-0.001,0.004,102.0,104.0,101.0,13.4,1505.2,321.4,-0.8,1.9,2471.012,13.28,0.007,261.9
2022-08-09T02:16:03,42.805,6.029,-0.006,-0.011,-0.029,102.0,103.0,101.0,13.4,1505.2,329.8,-0.7,1.8,2470.967,13.29,0.012,208.6
2022-08-09T02:19:03,42.805,6.029,-0.01,0.0,-0.003,103.0,102.0,101.0,13.4,1505.2,322.9,-0.7,1.8,2470.991,13.29,0.01,270.0
2022-08-09T02:22:03,42.805,6.029,-0.004,-0.013,-0.03,103.0,103.0,100.0,13.4,1505.2,330.1,-0.8,1.8,2470.992,13.29,0.013,197.1
2022-08-09T02:25:03,42.805,6.029,0.025,-0.019,-0.023,102.0,101.0,102.0,13.4,1505.2,323.1,-0.8,1.8,2470.937,13.29,0.031,127.2
2022-08-09T02:28:03,42.805,6.029,0.01,-0.012,-0.019,102.0,103.0,102.0,13.4,1505.2,325.8,-0.8,1.8,2471.01,13.29,0.015,140.2
2022-08-09T02:31:03,42.805,6.029,0.019,0.011,-0.043,102.0,102.0,101.0,13.4,1505.2,319.7,-0.7,1.8,2470.99,13.29,0.021,59.9
2022-08-09T02:34:03,42.805,6.029,0.001,-0.01,-0.047,102.0,102.0,100.0,13.4,1505.2,331.8,-0.7,1.8,2470.981,13.29,0.01,174.3
2022-08-09T02:37:03,42.805,6.029,-0.008,-0.005,-0.063,102.0,102.0,99.0,13.4,1505.2,329.8,-0.7,1.8,2470.999,13.29,0.009,238.0
2022-08-09T02:40:03,42.805,6.029,-0.019,-0.002,-0.045,102.0,101.0,100.0,13.3,1505.2,317.9,-0.8,1.8,2470.959,13.29,0.019,264.0
2022-08-09T02:43:03,42.805,6.029,0.007,-0.007,-0.021,102.0,102.0,100.0,13.4,1505.2,321.5,-0.7,1.8,2471.005,13.29,0.009,135.0
2022-08-09T02:46:03,42.805,6.029,-0.004,0.023,0.017,102.0,101.0,100.0,13.3,1505.2,322.3,-0.8,1.8,2470.97,13.29,0.023,350.1
2022-08-09T02:49:03,42.805,6.029,0.002,-0.024,-0.046,102.0,100.0,100.0,13.4,1505.2,323.5,-0.8,1.8,2470.982,13.29,0.024,175.2
2022-08-09T02:52:03,42.805,6.029,0.009,-0.002,-0.029,101.0,102.0,101.0,13.4,1505.2,329.1,-0.8,1.8,2470.98,13.29,0.009,102.5
2022-08-09T02:55:03,42.805,6.029,-0.007,-0.013,-0.013,101.0,102.0,101.0,13.4,1505.2,328.7,-0.8,1.8,2470.994,13.29,0.014,208.3
2022-08-09T02:58:03,42.805,6.029,-0.01,-0.007,-0.057,101.0,102.0,100.0,13.3,1505.2,324.3,-0.8,1.8,2471.006,13.29,0.012,235.0
2022-08-09T03:04:03,42.805,6.029,-0.008,0.024,0.013,102.0,103.0,100.0,13.4,1505.2,325.0,-0.7,1.8,2471.023,13.28,0.025,341.6
2022-08-09T03:07:03,42.805,6.029,-0.008,-0.02,-0.033,102.0,101.0,103.0,13.4,1505.2,327.4,-0.7,1.8,2471.011,13.28,0.021,201.8
2022-08-09T03:10:03,42.805,6.029,0.0,-0.015,-0.001,103.0,102.0,101.0,13.4,1505.2,325.5,-0.8,1.8,2471.01,13.28,0.015,180.0
2022-08-09T03:13:03,42.805,6.029,-0.002,0.001,-0.003,103.0,100.0,101.0,13.4,1505.2,329.6,-0.7,1.8,2471.037,13.28,0.002,296.6
2022-08-09T03:16:03,42.805,6.029,-0.002,-0.012,-0.026,103.0,101.0,101.0,13.3,1505.2,326.3,-0.7,1.8,2471.0,13.28,0.012,189.5
2022-08-09T03:19:03,42.805,6.029,0.001,-0.005,-0.004,102.0,102.0,102.0,13.4,1505.2,322.4,-0.7,1.8,2471.012,13.29,0.005,168.7
2022-08-09T03:22:03,42.805,6.029,-0.008,0.002,-0.049,102.0,102.0,101.0,13.3,1505.2,324.0,-0.7,1.8,2470.999,13.29,0.008,284.0
2022-08-09T03:25:03,42.805,6.029,0.005,-0.01,-0.019,102.0,102.0,102.0,13.4,1505.2,325.5,-0.8,1.9,2471.036,13.29,0.011,153.4
2022-08-09T03:28:03,42.805,6.029,-0.012,0.014,-0.015,103.0,102.0,100.0,13.3,1505.2,325.5,-0.8,1.8,2470.962,13.29,0.018,319.4
2022-08-09T03:31:03,42.805,6.029,-0.007,-0.012,-0.036,102.0,101.0,101.0,13.4,1505.2,322.9,-0.8,1.8,2470.95,13.29,0.013,210.3
2022-08-09T03:34:03,42.805,6.029,-0.016,0.012,-0.019,102.0,101.0,101.0,13.4,1505.2,333.9,-0.7,1.8,2471.012,13.29,0.02,306.9
2022-08-09T03:37:03,42.805,6.029,0.004,0.005,-0.013,103.0,102.0,101.0,13.4,1505.2,318.8,-0.8,1.8,2470.981,13.29,0.006,38.7
2022-08-09T03:40:03,42.805,6.029,-0.024,-0.026,-0.049,103.0,102.0,101.0,13.4,1505.2,329.5,-0.8,1.8,2470.999,13.29,0.035,222.7
2022-08-09T03:43:03,42.805,6.029,-0.013,-0.004,-0.03,101.0,101.0,101.0,13.4,1505.2,330.3,-0.8,1.8,2470.982,13.29,0.013,252.9
2022-08-09T03:46:03,42.805,6.029,0.0,-0.006,-0.043,102.0,103.0,100.0,13.4,1505.2,322.7,-0.8,1.8,2471.017,13.29,0.006,180.0
2022-08-09T03:49:03,42.805,6.029,0.015,0.016,0.01,103.0,101.0,102.0,13.4,1505.2,329.5,-0.8,1.8,2471.025,13.29,0.021,43.1
2022-08-09T03:52:03,42.805,6.029,-0.012,-0.016,-0.033,102.0,101.0,101.0,13.3,1505.2,328.0,-0.7,1.9,2471.035,13.29,0.02,216.9
2022-08-09T03:55:03,42.805,6.029,0.015,-0.026,-0.037,102.0,102.0,101.0,13.4,1505.2,326.7,-0.8,1.8,2471.016,13.29,0.03,150.0
2022-08-09T03:58:03,42.805,6.029,0.01,0.004,-0.047,102.0,103.0,100.0,13.3,1505.2,327.9,-0.8,1.8,2471.046,13.29,0.01,68.2
2022-08-09T04:04:03,42.805,6.029,0.001,0.006,-0.021,101.0,102.0,101.0,13.4,1505.2,322.3,-0.8,1.8,2471.059,13.28,0.006,9.5
2022-08-09T04:07:03,42.805,6.029,-0.013,-0.003,-0.013,101.0,102.0,101.0,13.4,1505.2,320.7,-0.8,1.8,2471.067,13.29,0.013,257.0
2022-08-09T04:10:03,42.805,6.029,-0.014,0.008,0.003,104.0,103.0,100.0,13.4,1505.2,332.9,-0.8,1.8,2471.028,13.29,0.016,299.7
2022-08-09T04:13:03,42.805,6.029,0.027,0.0,-0.008,102.0,102.0,100.0,13.4,1505.2,326.7,-0.8,1.8,2471.03,13.29,0.026,90.0
2022-08-09T04:16:03,42.805,6.029,-0.001,-0.016,-0.03,103.0,101.0,100.0,13.4,1505.2,329.8,-0.8,1.8,2471.049,13.29,0.016,183.6
2022-08-09T04:19:03,42.805,6.029,-0.011,-0.007,-0.041,102.0,102.0,101.0,13.3,1505.2,320.3,-0.7,1.8,2471.011,13.29,0.013,237.5
2022-08-09T04:22:03,42.805,6.029,-0.006,0.0,0.01,100.0,103.0,101.0,13.3,1505.2,325.2,-0.8,1.8,2471.052,13.29,0.006,270.0
2022-08-09T04:25:03,42.805,6.029,0.009,-0.019,-0.02,102.0,101.0,102.0,13.4,1505.2,333.6,-0.7,1.8,2471.025,13.29,0.021,154.7
2022-08-09T04:28:03,42.805,6.029,0.0,-0.002,-0.027,103.0,102.0,102.0,13.4,1505.2,326.3,-0.8,1.8,2470.999,13.29,0.002,180.0
2022-08-09T04:31:03,42.805,6.029,0.01,-0.016,-0.028,102.0,104.0,101.0,13.4,1505.2,333.4,-0.8,1.8,2471.041,13.29,0.018,148.0
2022-08-09T04:34:03,42.805,6.029,-0.016,0.013,0.006,102.0,103.0,101.0,13.4,1505.2,334.2,-0.8,1.8,2471.011,13.29,0.02,309.1
2022-08-09T04:37:03,42.805,6.029,-0.008,-0.008,-0.043,103.0,103.0,101.0,13.4,1505.2,327.1,-0.7,1.9,2470.966,13.29,0.011,225.0
2022-08-09T04:40:03,42.805,6.029,-0.006,0.003,-0.015,102.0,103.0,101.0,13.4,1505.2,333.1,-0.7,1.8,2471.034,13.29,0.006,296.6
2022-08-09T04:43:03,42.805,6.029,-0.01,0.012,-0.012,103.0,102.0,100.0,13.4,1505.2,329.0,-0.8,1.8,2471.001,13.29,0.015,320.2
2022-08-09T04:46:03,42.805,6.029,0.017,-0.011,-0.014,103.0,102.0,101.0,13.3,1505.2,325.2,-0.8,1.8,2471.008,13.29,0.02,122.9
2022-08-09T04:49:03,42.805,6.029,-0.024,-0.001,-0.038,103.0,103.0,101.0,13.3,1505.2,331.0,-0.8,1.8,2471.051,13.29,0.024,267.6
2022-08-09T04:52:03,42.805,6.029,-0.011,-0.006,-0.038,102.0,101.0,102.0,13.3,1505.2,332.4,-0.8,1.8,2471.006,13.29,0.012,241.4
2022-08-09T04:55:03,42.805,6.029,-0.021,0.005,-0.011,103.0,103.0,102.0,13.4,1505.2,323.3,-0.8,1.8,2470.998,13.29,0.021,283.4
2022-08-09T04:58:03,42.805,6.029,-0.016,-0.012,-0.016,103.0,104.0,100.0,13.3,1505.2,325.2,-0.7,1.8,2471.004,13.29,0.02,233.1
2022-08-09T05:04:03,42.805,6.029,-0.002,0.018,-0.022,104.0,102.0,101.0,13.4,1505.2,329.5,-0.8,1.8,2471.073,13.29,0.018,353.7
2022-08-09T05:07:03,42.805,6.029,-0.01,0.001,-0.035,103.0,102.0,101.0,13.4,1505.2,324.0,-0.8,1.8,2471.051,13.29,0.01,275.7
2022-08-09T05:10:03,42.805,6.029,-0.012,0.019,-0.001,102.0,101.0,101.0,13.4,1505.2,321.8,-0.8,1.8,2471.055,13.29,0.022,327.7
2022-08-09T05:13:03,42.805,6.029,-0.022,-0.002,-0.001,103.0,102.0,101.0,13.4,1505.2,323.1,-0.7,1.8,2470.988,13.29,0.022,264.8
2022-08-09T05:16:03,42.805,6.029,-0.003,0.003,-0.002,103.0,102.0,101.0,13.3,1505.2,318.3,-0.8,1.8,2471.034,13.29,0.004,315.0
2022-08-09T05:19:03,42.805,6.029,-0.028,0.003,-0.017,103.0,100.0,102.0,13.4,1505.2,325.8,-0.7,1.8,2471.038,13.29,0.028,276.1
2022-08-09T05:22:03,42.805,6.029,-0.014,0.02,-0.038,102.0,101.0,101.0,13.4,1505.2,319.4,-0.8,1.8,2471.017,13.29,0.024,325.0
2022-08-09T05:25:03,42.805,6.029,0.003,-0.004,-0.018,103.0,103.0,101.0,13.3,1505.2,329.0,-0.8,1.8,2471.004,13.29,0.005,143.1
2022-08-09T05:28:03,42.805,6.029,-0.029,0.011,-0.043,103.0,102.0,101.0,13.3,1505.2,328.4,-0.8,1.8,2471.011,13.29,0.031,290.8
2022-08-09T05:31:03,42.805,6.029,-0.011,-0.004,-0.025,103.0,102.0,101.0,13.4,1505.2,320.4,-0.8,1.8,2470.981,13.29,0.011,250.0
2022-08-09T05:34:03,42.805,6.029,-0.041,0.009,-0.047,101.0,102.0,101.0,13.4,1505.2,329.5,-0.7,1.8,2471.037,13.29,0.041,282.4
2022-08-09T05:37:03,42.805,6.029,0.004,-0.012,-0.016,103.0,104.0,103.0,13.3,1505.2,323.6,-0.7,1.8,2471.033,13.29,0.012,161.6
2022-08-09T05:40:03,42.805,6.029,0.001,-0.003,-0.045,102.0,103.0,101.0,13.4,1505.2,320.3,-0.7,1.8,2471.039,13.29,0.003,161.6
2022-08-09T05:43:03,42.805,6.029,-0.01,0.018,-0.005,101.0,102.0,100.0,13.3,1505.2,331.8,-0.8,1.8,2470.986,13.29,0.02,330.9
2022-08-09T05:46:03,42.805,6.029,-0.003,0.011,0.0,102.0,102.0,101.0,13.3,1505.2,327.2,-0.8,1.8,2471.015,13.29,0.011,344.7
2022-08-09T05:49:03,42.805,6.029,-0.02,0.016,-0.012,104.0,102.0,101.0,13.3,1505.2,330.0,-0.7,1.8,2470.975,13.29,0.025,308.7
2022-08-09T05:52:03,42.805,6.029,-0.03,0.005,-0.03,104.0,104.0,101.0,13.4,1505.2,324.4,-0.8,1.8,2470.997,13.29,0.03,279.5
2022-08-09T05:55:03,42.805,6.029,-0.026,-0.009,-0.013,103.0,101.0,101.0,13.3,1505.2,327.2,-0.7,1.8,2470.982,13.29,0.027,250.9
2022-08-09T05:58:03,42.805,6.029,-0.012,0.011,-0.025,104.0,101.0,102.0,13.3,1505.2,331.2,-0.8,1.8,2471.01,13.29,0.016,312.5
2022-08-09T06:04:03,42.805,6.029,0.002,-0.004,-0.029,102.0,102.0,101.0,13.4,1505.2,319.7,-0.8,1.8,2471.052,13.29,0.004,153.4
2022-08-09T06:07:03,42.805,6.029,-0.001,-0.004,-0.016,102.0,104.0,101.0,13.4,1505.2,320.4,-0.7,1.8,2471.044,13.29,0.004,194.0
2022-08-09T06:10:03,42.805,6.029,-0.012,0.012,-0.023,103.0,102.0,100.0,13.4,1505.2,321.2,-0.7,1.8,2471.056,13.29,0.016,315.0
2022-08-09T06:13:03,42.805,6.029,-0.007,0.008,-0.021,102.0,102.0,102.0,13.4,1505.2,333.9,-0.7,1.8,2471.032,13.29,0.01,318.8
2022-08-09T06:16:03,42.805,6.029,-0.011,-0.004,-0.022,103.0,102.0,100.0,13.4,1505.2,320.8,-0.8,1.8,2471.015,13.29,0.011,250.0
2022-08-09T06:19:03,42.805,6.029,-0.023,-0.006,-0.017,102.0,102.0,101.0,13.4,1505.2,325.5,-0.8,1.8,2470.992,13.29,0.023,255.4
2022-08-09T06:22:03,42.805,6.029,-0.003,0.0,0.003,102.0,103.0,101.0,13.3,1505.2,323.6,-0.8,1.8,2471.038,13.29,0.003,270.0
2022-08-09T06:25:03,42.805,6.029,-0.013,0.003,-0.007,104.0,103.0,99.0,13.3,1505.2,325.8,-0.8,1.8,2471.022,13.29,0.013,283.0
2022-08-09T06:28:03,42.805,6.029,-0.011,-0.01,-0.017,103.0,101.0,101.0,13.3,1505.2,319.1,-0.8,1.8,2471.019,13.29,0.014,227.7
2022-08-09T06:31:03,42.805,6.029,-0.013,-0.006,-0.018,102.0,102.0,101.0,13.3,1505.2,332.6,-0.8,1.8,2471.022,13.29,0.014,245.2
2022-08-09T06:34:03,42.805,6.029,-0.014,0.012,-0.012,103.0,103.0,101.0,13.4,1505.2,328.4,-0.8,1.8,2471.0,13.29,0.018,310.6
2022-08-09T06:37:03,42.805,6.029,-0.017,-0.014,-0.066,101.0,102.0,101.0,13.4,1505.2,320.6,-0.8,1.8,2470.973,13.29,0.022,230.5
2022-08-09T06:40:03,42.805,6.029,-0.023,0.0,-0.028,103.0,102.0,101.0,13.4,1505.2,326.6,-0.8,1.8,2470.967,13.29,0.023,270.0
2022-08-09T06:43:03,42.805,6.029,0.016,-0.011,-0.035,102.0,103.0,101.0,13.3,1505.2,325.8,-0.8,1.8,2470.991,13.29,0.019,124.5
2022-08-09T06:46:03,42.805,6.029,0.002,0.004,-0.04,102.0,102.0,101.0,13.3,1505.2,327.1,-0.7,1.8,2470.958,13.29,0.004,26.6
2022-08-09T06:49:03,42.805,6.029,0.009,-0.009,-0.008,104.0,103.0,101.0,13.4,1505.2,332.9,-0.7,1.8,2470.943,13.29,0.012,135.0
2022-08-09T06:52:03,42.805,6.029,-0.006,-0.002,-0.022,102.0,103.0,100.0,13.3,1505.2,323.3,-0.8,1.9,2470.965,13.29,0.006,251.6
2022-08-09T06:55:03,42.805,6.029,-0.019,-0.002,-0.052,103.0,102.0,101.0,13.3,1505.2,321.9,-0.8,1.9,2470.93,13.29,0.019,264.0
2022-08-09T06:58:03,42.805,6.029,-0.002,0.013,-0.009,103.0,106.0,101.0,13.4,1505.2,332.3,-0.7,1.8,2470.935,13.29,0.013,351.3
2022-08-09T07:04:03,42.805,6.029,-0.006,-0.008,-0.03,102.0,102.0,102.0,13.4,1505.2,320.3,-0.7,1.8,2470.998,13.29,0.01,216.9
2022-08-09T07:07:03,42.805,6.029,-0.018,-0.006,-0.015,101.0,102.0,101.0,13.4,1505.2,328.5,-0.8,1.8,2471.02,13.29,0.018,251.6
2022-08-09T07:10:03,42.805,6.029,-0.005,0.014,0.0,101.0,103.0,102.0,13.4,1505.2,322.0,-0.7,1.8,2471.015,13.29,0.014,340.4
2022-08-09T07:13:03,42.805,6.029,-0.027,0.008,-0.001,101.0,101.0,101.0,13.3,1505.2,332.8,-0.8,1.8,2470.985,13.29,0.028,286.5
2022-08-09T07:16:03,42.805,6.029,-0.002,0.006,-0.014,101.0,102.0,100.0,13.3,1505.2,331.8,-0.7,1.8,2471.007,13.29,0.006,341.6
2022-08-09T07:19:03,42.805,6.029,-0.014,0.0,-0.024,103.0,100.0,100.0,13.3,1505.2,324.1,-0.8,1.8,2470.976,13.29,0.014,270.0
2022-08-09T07:22:03,42.805,6.029,-0.017,-0.003,-0.051,103.0,100.0,100.0,13.3,1505.2,328.1,-0.7,1.8,2470.952,13.29,0.017,260.0
2022-08-09T07:25:03,42.805,6.029,0.007,-0.004,-0.041,102.0,102.0,101.0,13.4,1505.2,329.7,-0.8,1.8,2470.996,13.29,0.008,119.7
2022-08-09T07:28:03,42.805,6.029,-0.013,0.016,-0.007,103.0,101.0,101.0,13.4,1505.2,333.9,-0.8,1.8,2470.959,13.29,0.02,320.9
2022-08-09T07:31:03,42.805,6.029,0.0,0.017,-0.002,101.0,103.0,100.0,13.4,1505.2,323.9,-0.7,1.8,2470.963,13.29,0.017,0.0
2022-08-09T07:34:03,42.805,6.029,-0.006,0.007,-0.024,102.0,102.0,100.0,13.3,1505.2,319.3,-0.8,1.9,2470.964,13.29,0.009,319.4
2022-08-09T07:37:03,42.805,6.029,0.005,0.021,-0.016,100.0,102.0,100.0,13.3,1505.2,322.5,-0.8,1.8,2470.951,13.29,0.021,13.4
2022-08-09T07:40:03,42.805,6.029,0.0,0.012,-0.019,101.0,103.0,100.0,13.3,1505.2,329.3,-0.8,1.8,2470.919,13.29,0.012,0.0
2022-08-09T07:43:03,42.805,6.029,0.007,0.021,-0.014,103.0,101.0,100.0,13.4,1505.2,318.7,-0.8,1.8,2470.916,13.29,0.022,18.4
2022-08-09T07:46:03,42.805,6.029,0.014,0.004,-0.019,101.0,101.0,102.0,13.3,1505.2,326.6,-0.7,1.8,2470.945,13.29,0.014,74.1
2022-08-09T07:49:03,42.805,6.029,0.007,0.008,-0.007,102.0,101.0,102.0,13.4,1505.2,326.1,-0.8,1.8,2470.932,13.29,0.01,41.2
2022-08-09T07:52:03,42.805,6.029,0.012,0.004,-0.001,102.0,101.0,101.0,13.3,1505.2,319.5,-0.8,1.8,2470.931,13.29,0.012,71.6
2022-08-09T07:55:03,42.805,6.029,-0.028,-0.009,-0.037,102.0,102.0,100.0,13.4,1505.2,329.7,-0.8,1.8,2470.93,13.29,0.029,252.2
2022-08-09T07:58:03,42.805,6.029,-0.006,0.015,-0.029,102.0,102.0,101.0,13.3,1505.2,324.3,-0.8,1.8,2470.942,13.3,0.016,338.2
2022-08-09T08:04:03,42.805,6.029,0.0,-0.001,-0.009,102.0,102.0,102.0,13.4,1505.2,321.9,-0.8,1.8,2470.979,13.29,0.001,180.0
2022-08-09T08:07:03,42.805,6.029,0.004,0.0,-0.01,102.0,107.0,101.0,13.4,1505.2,332.3,-0.7,1.8,2470.96,13.29,0.004,90.0
2022-08-09T08:10:03,42.805,6.029,0.017,0.0,-0.012,102.0,101.0,101.0,13.3,1505.2,319.4,-0.7,1.8,2470.975,13.29,0.017,90.0
2022-08-09T08:13:03,42.805,6.029,0.001,0.017,-0.011,100.0,103.0,101.0,13.4,1505.2,322.9,-0.7,1.8,2471.003,13.29,0.017,3.4
2022-08-09T08:16:03,42.805,6.029,0.023,0.002,-0.003,102.0,102.0,100.0,13.3,1505.2,329.5,-0.8,1.8,2470.926,13.29,0.023,85.0
2022-08-09T08:19:03,42.805,6.029,-0.015,0.008,-0.027,103.0,103.0,99.0,13.4,1505.2,323.0,-0.7,1.8,2470.963,13.29,0.017,298.1
2022-08-09T08:22:03,42.805,6.029,0.014,-0.006,-0.039,101.0,102.0,101.0,13.3,1505.2,318.3,-0.7,1.8,2470.937,13.29,0.015,113.2
2022-08-09T08:25:03,42.805,6.029,0.034,-0.009,-0.011,101.0,102.0,101.0,13.4,1505.2,324.2,-0.8,1.8,2470.924,13.29,0.035,104.8
2022-08-09T08:28:03,42.805,6.029,0.009,-0.001,-0.036,101.0,102.0,101.0,13.3,1505.2,322.8,-0.8,1.8,2470.942,13.29,0.009,96.3
2022-08-09T08:31:03,42.805,6.029,-0.004,-0.004,-0.013,104.0,101.0,100.0,13.4,1505.2,330.3,-0.8,1.8,2470.936,13.29,0.005,225.0
2022-08-09T08:34:03,42.805,6.029,-0.025,-0.002,-0.062,102.0,101.0,101.0,13.4,1505.2,330.1,-0.7,1.8,2470.931,13.29,0.025,265.4
2022-08-09T08:37:03,42.805,6.029,0.007,-0.003,-0.029,103.0,102.0,101.0,13.4,1505.2,326.9,-0.8,1.8,2470.924,13.29,0.007,113.2
2022-08-09T08:40:03,42.805,6.029,0.0,0.017,0.016,105.0,102.0,100.0,13.4,1505.2,326.0,-0.8,1.8,2470.969,13.29,0.017,0.0
2022-08-09T08:43:03,42.805,6.029,-0.003,-0.003,-0.053,103.0,102.0,101.0,13.4,1505.2,317.5,-0.8,1.8,2470.904,13.29,0.004,225.0
2022-08-09T08:46:03,42.805,6.029,-0.01,0.015,-0.016,102.0,102.0,100.0,13.4,1505.2,321.8,-0.8,1.8,2470.918,13.29,0.018,326.3
2022-08-09T08:49:03,42.805,6.029,-0.016,0.002,-0.056,101.0,102.0,101.0,13.4,1505.2,329.2,-0.7,1.8,2470.906,13.29,0.016,277.1
2022-08-09T08:52:03,42.805,6.029,0.01,0.006,0.002,102.0,101.0,102.0,13.4,1505.2,326.9,-0.8,1.8,2470.937,13.29,0.011,59.0
2022-08-09T08:55:03,42.805,6.029,0.02,-0.003,-0.013,103.0,101.0,101.0,13.4,1505.2,322.4,-0.7,1.8,2470.879,13.29,0.02,98.5
2022-08-09T08:58:03,42.805,6.029,-0.013,0.004,0.0,101.0,102.0,100.0,13.3,1505.2,321.3,-0.8,1.8,2470.893,13.29,0.013,287.1
2022-08-09T09:04:03,42.805,6.029,0.01,-0.018,-0.032,103.0,103.0,101.0,13.4,1505.2,320.7,-0.7,1.8,2470.96,13.29,0.02,150.9
2022-08-09T09:07:03,42.805,6.029,0.026,-0.019,-0.019,101.0,101.0,101.0,13.3,1505.2,327.3,-0.7,1.8,2470.948,13.29,0.032,126.2
2022-08-09T09:10:03,42.805,6.029,0.026,-0.004,-0.029,102.0,102.0,101.0,13.3,1505.2,333.6,-0.8,1.8,2470.926,13.29,0.026,98.7
2022-08-09T09:13:03,42.805,6.029,-0.003,-0.012,-0.038,103.0,102.0,101.0,13.4,1505.2,319.5,-0.8,1.8,2470.95,13.29,0.012,194.0
2022-08-09T09:16:03,42.805,6.029,0.022,-0.008,0.0,101.0,101.0,102.0,13.4,1505.2,323.0,-0.7,1.8,2470.917,13.29,0.023,110.0
2022-08-09T09:19:03,42.805,6.029,0.025,0.001,-0.016,103.0,102.0,101.0,13.4,1505.2,333.4,-0.8,1.8,2470.917,13.29,0.025,87.7
2022-08-09T09:22:03,42.805,6.029,0.006,-0.013,-0.011,102.0,102.0,101.0,13.4,1505.2,325.5,-0.8,1.8,2470.92,13.29,0.014,155.2
2022-08-09T09:25:03,42.805,6.029,0.001,-0.017,-0.055,102.0,101.0,102.0,13.4,1505.2,329.0,-0.8,1.8,2470.909,13.29,0.017,176.6
2022-08-09T09:28:03,42.805,6.029,0.003,0.002,-0.028,103.0,102.0,101.0,13.4,1505.2,329.6,-0.8,1.8,2470.904,13.29,0.003,56.3
2022-08-09T09:31:03,42.805,6.029,0.014,-0.006,-0.008,103.0,103.0,100.0,13.4,1505.2,329.0,-0.8,1.8,2470.928,13.29,0.015,113.2
2022-08-09T09:34:03,42.805,6.029,-0.006,-0.01,-0.013,104.0,101.0,102.0,13.4,1505.2,323.5,-0.8,1.8,2470.882,13.29,0.011,211.0
2022-08-09T09:37:03,42.805,6.029,0.013,0.0,-0.023,102.0,103.0,101.0,13.3,1505.2,323.5,-0.8,1.9,2470.875,13.29,0.013,90.0
2022-08-09T09:40:03,42.805,6.029,0.032,-0.012,-0.018,102.0,102.0,100.0,13.4,1505.2,322.5,-0.8,1.8,2470.853,13.29,0.034,110.6
2022-08-09T09:43:03,42.805,6.029,-0.01,-0.008,-0.024,102.0,104.0,100.0,13.4,1505.2,320.8,-0.8,1.8,2470.897,13.29,0.012,231.3
2022-08-09T09:46:03,42.805,6.029,-0.007,0.0,0.0,103.0,102.0,101.0,13.4,1505.2,325.1,-0.7,1.8,2470.88,13.29,0.007,270.0
2022-08-09T09:49:03,42.805,6.029,0.002,-0.019,-0.004,102.0,103.0,100.0,13.4,1505.2,317.6,-0.8,1.8,2470.876,13.29,0.019,174.0
2022-08-09T09:52:03,42.805,6.029,0.002,-0.017,-0.031,102.0,103.0,101.0,13.4,1505.2,323.7,-0.7,1.9,2470.885,13.29,0.017,173.3
2022-08-09T09:55:03,42.805,6.029,0.012,-0.005,-0.021,102.0,104.0,100.0,13.4,1505.2,323.0,-0.8,1.8,2470.913,13.29,0.013,112.6